GOES 17 (43226 NORAD) Tracking and Keplerian Element Data

This shows tracking and keplerian element data for the satellite.

Feedback or suggestion? Click here.




ElementValue
Catalog43226
NameGOES 17
Epoch Orbit415
Epoch Day106.79146538
Epoch Year2019
RAAN80.0993
Inclination0.0045
Eccentricity0.0003108
Argument of Perigee313.1789
Mean Anonmoly319.0773
Mean Motion1.00272212
Decay Rate7.6E-07
L11 43226U 18022A 19106.79146538 .00000076 00000-0 00000-0 0 9993
L22 43226 0.0045 80.0993 0003108 313.1789 319.0773 1.00272212 4158

Live tracking and technical data element details for GOES 17 (NORAD 43226). GOES 17 can be tracked NOW for your location showing map with azimuth and elevation plus other details from your city location.

Track the satellite on the map from your city or location and see movement details for azimuth, elevation, latitude, longitude, range, height, and movement on the map or in text.







IsCatalogInMostPopularTable: catalog: 43226, numindb: 314
Update: records affected: 1



GetName: 43226 GOES 17

Hit Count: updated at: Fri, 19 Apr 2019 20:22:24 GMT